Regional Weather Roundup
Issued by NWS

Home | Current Version | Previous Version | Text Only | Print | Product List | Glossary Off
Versions: 1 2 3 4 5 6 7 8 9 10 11 12 13 14 15 16 17 18 19 20 21 22 23 24 25 26 27 28 29 30 31 32 33 34 35 36 37 38 39 40 41 42 43 44 45 46 47 48 49 50

000
ASUS43 KBIS 211831
RWRND
NORTH DAKOTA REGIONAL WEATHER ROUNDUP
NATIONAL WEATHER SERVICE EASTERN NORTH DAKOTA/GRAND FORKS ND
1200 PM CST WED FEB 21 2018

  NOTE: "FAIR" INDICATES FEW OR NO CLOUDS BELOW 12,000 FEET WITH NO
  SIGNIFICANT WEATHER AND/OR OBSTRUCTIONS TO VISIBILITY.

NDZ001>003-009>011-017-211900-
...NORTHWEST NORTH DAKOTA...

CITY           SKY/WX    TMP DP  RH WIND       PRES   REMARKS
WILLISTON      FAIR       3  -8  60 SW7       30.33S WCI  -9
6HR MIN TEMP: -12; 6HR MAX TEMP:   3;

MINOT          FAIR       8  -3  61 W10       30.36R WCI  -6
MINOT AFB      FAIR       5  -4  65 W14       30.35R WCI -12
6HR MIN TEMP:  -4; 6HR MAX TEMP:   5;

$$

NDZ018>021-031>035-040>046-211900-
...SOUTHWEST NORTH DAKOTA...

CITY           SKY/WX    TMP DP  RH WIND       PRES   REMARKS
BISMARCK       FAIR       9  -5  53 SW12      30.44R WCI  -6
DICKINSON      FAIR       8  -6  52 SW10      30.29R WCI  -6
GARRISON         N/A      5  -6  60 W9        30.37R WCI  -9
HETTINGER      FAIR       3  -9  57 CALM      30.34R
$$

NDZ004>008-012>016-024-026-027-054-211900-
...NORTHEAST NORTH DAKOTA...

CITY           SKY/WX    TMP DP  RH WIND       PRES   REMARKS
GRAND FORKS    FAIR       6  -3  66 S12       30.48R WCI  -9
GRAND FORKS AF SUNNY     12   1  62 SW3       30.48S
DEVILS LAKE    FAIR       2  -7  66 SW14      30.40R WCI -16
$$

NDZ022-023-025-028>030-036>039-047>053-211900-
...SOUTHEAST NORTH DAKOTA...

CITY           SKY/WX    TMP DP  RH WIND       PRES   REMARKS
JAMESTOWN      FAIR      10  -3  55 SW9       30.44R WCI  -3
FARGO          FAIR       6  -4  63 SW10      30.54R WCI  -9
WAHPETON       FAIR       7  -4  61 S6        30.59R WCI  -3
$$




USA.gov is the U.S. government's official web portal to all federal, state and local government web resources and services.